This demonstration page uses our WeatherBlox Daily Observations layout. Learn more.

Left ArrowRight Arrow

Hourly Observations for October 30, 2015

Temp ( °F °C ) Dew Point ( °F °C ) Humidity (%) Winds ( mph kmh ) Pressure ( in mb ) Visibility ( mi km ) Precip ( " mm )
12:15 am 00:15 Clear 36 2.2 27 -2.9 69 69 SE 5 7 30.06 1018 10 16 N/A
12:35 am 00:35 Clear 35 1.7 27 -3 71 71 SE 3 6 30.06 1018 10 16 N/A
12:55 am 00:55 Clear 37 2.5 26 -3.1 67 67 SE 5 7 30.06 1018 10 16 N/A
1:15 am 01:15 Clear 36 2.4 27 -2.6 70 70 SSE 6 9 30.06 1018 10 16 N/A
1:35 am 01:35 Clear 36 2.2 28 -2.5 71 71 Calm 30.06 1018 10 16 N/A
1:55 am 01:55 Mostly Cloudy 34 1.3 29 -1.6 81 81 ESE 3 6 30.06 1018 10 16 N/A
2:15 am 02:15 Cloudy 36 2.3 31 -0.7 81 81 S 7 11 30.06 1018 10 16 N/A
2:35 am 02:35 Partly Cloudy 40 4.7 28 -2 62 62 S 8 13 30.03 1017 10 16 N/A
2:55 am 02:55 Clear 41 4.9 27 -2.6 59 59 S 5 7 30.03 1017 10 16 N/A
3:15 am 03:15 Partly Cloudy 40 4.7 27 -2.6 60 60 SSE 8 13 30.03 1017 10 16 N/A
3:35 am 03:35 Clear 38 3.6 27 -2.7 64 64 S 7 11 30.03 1017 10 16 N/A
3:55 am 03:55 Partly Cloudy 39 3.7 27 -2.7 63 63 SSE 8 13 30.03 1017 10 16 N/A
4:15 am 04:15 Partly Cloudy 39 4 27 -2.8 62 62 S 8 13 30.03 1017 10 16 N/A
4:35 am 04:35 Clear 39 3.8 27 -2.7 63 63 SSE 7 11 30.00 1016 10 16 N/A
4:55 am 04:55 Clear 38 3.4 28 -2.5 66 66 S 6 9 30.03 1017 10 16 N/A
5:15 am 05:15 Clear 37 2.8 27 -2.6 68 68 SE 3 6 30.03 1017 10 16 N/A
5:35 am 05:35 Clear 37 2.5 27 -2.7 69 69 SSE 8 13 30.03 1017 10 16 N/A
5:55 am 05:55 Mostly Cloudy 37 2.8 28 -2.3 69 69 SSE 3 6 30.03 1017 10 16 N/A
6:15 am 06:15 Mostly Cloudy 38 3.2 28 -2.5 67 67 SE 3 6 30.03 1017 10 16 N/A
6:35 am 06:35 Mostly Cloudy 38 3.3 27 -2.6 66 66 SE 3 6 30.03 1017 10 16 N/A
6:55 am 06:55 Partly Cloudy 37 2.8 27 -2.6 68 68 SE 5 7 29.97 1015 10 16 N/A
7:15 am 07:15 Partly Cloudy 37 2.6 28 -2.5 69 69 SE 5 7 29.97 1015 10 16 N/A
7:35 am 07:35 Clear 37 2.5 28 -2.1 72 72 ESE 5 7 29.97 1015 10 16 N/A
7:55 am 07:55 Partly Cloudy 37 2.6 28 -2.2 71 71 ESE 3 6 29.97 1015 10 16 N/A
8:15 am 08:15 Mostly Cloudy 37 2.7 29 -1.6 74 74 ESE 3 6 29.97 1015 10 16 N/A
8:35 am 08:35 Mostly Cloudy 38 3.2 30 -1.1 74 74 ESE 5 7 29.97 1015 10 16 N/A
8:55 am 08:55 Cloudy 39 4 29 -1.9 66 66 SE 5 7 29.97 1015 10 16 N/A
9:15 am 09:15 Cloudy 40 4.2 29 -1.4 67 67 ESE 5 7 29.97 1015 10 16 N/A
9:35 am 09:35 Mostly Cloudy 40 4.4 30 -1.1 68 68 SE 5 7 29.97 1015 10 16 N/A
9:55 am 09:55 Mostly Cloudy 41 4.9 31 -0.6 68 68 SSE 3 6 30.00 1016 10 16 N/A
10:15 am 10:15 Mostly Cloudy 43 6 31 -0.5 63 63 S 3 6 30.00 1016 10 16 N/A
10:35 am 10:35 Cloudy 44 6.8 31 -0.7 59 59 S 9 15 29.97 1015 10 16 N/A
10:55 am 10:55 Cloudy with Rain 43 6 31 -0.5 63 63 S 8 13 30.00 1016 10 16 N/A
11:15 am 11:15 Cloudy with Drizzle 42 5.7 32 0.2 68 68 SSW 12 19 30.00 1016 10 16 N/A
11:35 am 11:35 Cloudy with Rain 41 5.2 34 1 75 75 SSW 8 13 30.03 1017 10 16 N/A
11:55 am 11:55 Cloudy with Rain 41 5.2 35 1.5 77 77 SW 8 13 30.03 1017 10 16 N/A
12:15 pm 12:15 Cloudy with Light Rain 41 5 35 1.8 80 80 WSW 5 7 30.03 1017 10 16 0.01 0.25
12:35 pm 12:35 Cloudy with Rain 41 4.8 36 2.3 84 84 S 6 9 30.03 1017 7 11 0.04 1.02
12:55 pm 12:55 Cloudy with Light Rain 40 4.7 37 2.7 87 87 SSW 3 6 30.00 1016 7 11 0.06 1.52
1:15 pm 13:15 Cloudy with Light Rain 41 4.8 37 2.9 88 88 SSW 5 7 30.00 1016 7 11 0.02 0.51
1:35 pm 13:35 Cloudy with Light Rain 41 4.8 37 3 88 88 SSW 6 9 30.00 1016 7 11 0.04 1.02
1:55 pm 13:55 Cloudy with Light Rain 40 4.7 38 3.1 90 90 SSW 5 7 29.97 1015 7 11 0.07 1.78
2:15 pm 14:15 Cloudy with Light Rain 41 5 38 3.5 90 90 SSW 3 6 29.97 1015 10 16 0.01 0.25
2:35 pm 14:35 Cloudy with Rain 41 5 39 3.7 91 91 SSW 3 6 29.97 1015 5 8 0.03 0.76
2:55 pm 14:55 Cloudy with Rain 42 5.3 39 4.1 92 92 S 5 7 29.94 1014 5 8 0.06 1.52
3:15 pm 15:15 Cloudy with Rain 42 5.3 40 4.2 93 93 S 6 9 29.94 1014 7 11 0.03 0.76
3:35 pm 15:35 Cloudy with Rain 42 5.4 40 4.5 94 94 S 3 6 29.94 1014 10 16 0.04 1.02
3:55 pm 15:55 Cloudy with Light Rain 42 5.4 40 4.5 94 94 SSE 7 11 29.91 1013 10 16 0.04 1.02
4:15 pm 16:15 Cloudy with Rain 42 5.4 40 4.6 95 95 SSE 6 9 29.91 1013 10 16 0.01 0.25
4:35 pm 16:35 Cloudy with Rain 42 5.5 40 4.7 95 95 SSE 8 13 29.88 1012 10 16 0.01 0.25
4:55 pm 16:55 Cloudy with Light Rain 42 5.5 41 4.8 95 95 SE 12 19 29.88 1012 10 16 0.02 0.51
5:15 pm 17:15 Cloudy with Light Rain 42 5.4 40 4.7 95 95 SE 7 11 29.88 1012 10 16 0.01 0.25
5:35 pm 17:35 Cloudy with Light Rain 42 5.5 40 4.7 95 95 SSE 5 7 29.85 1011 7 11 0.03 0.76
5:55 pm 17:55 Cloudy with Light Rain 42 5.5 41 4.8 95 95 SE 5 7 29.85 1011 7 11 0.03 0.76
6:15 pm 18:15 Cloudy with Light Rain 42 5.5 41 4.8 95 95 SE 7 11 29.85 1011 7 11 N/A
6:35 pm 18:35 Cloudy with Rain 42 5.4 40 4.6 95 95 SSE 9 15 29.88 1012 7 11 0.01 0.25
6:55 pm 18:55 Cloudy with Rain 41 5 40 4.5 97 97 SE 9 15 29.88 1012 10 16 0.02 0.51
7:15 pm 19:15 Cloudy with Light Rain 41 4.8 40 4.2 96 96 SE 8 13 29.83 1010 10 16 0.01 0.25
7:35 pm 19:35 Cloudy with Light Rain 41 4.9 40 4.4 97 97 SE 7 11 29.83 1010 10 16 0.01 0.25
7:55 pm 19:55 Cloudy with Light Rain 40 4.7 40 4.2 97 97 SE 8 13 29.83 1010 10 16 0.02 0.51
8:15 pm 20:15 Cloudy with Light Rain 40 4.7 40 4.2 97 97 SE 7 11 29.83 1010 10 16 0.01 0.25
8:35 pm 20:35 Cloudy with Light Rain 40 4.7 40 4.2 97 97 SSE 7 11 29.88 1012 10 16 0.02 0.51
8:55 pm 20:55 Cloudy with Light Rain 40 4.6 40 4.2 97 97 S 5 7 29.88 1012 7 11 0.04 1.02
9:15 pm 21:15 Cloudy with Light Rain 40 4.7 40 4.2 97 97 SW 3 6 29.88 1012 7 11 0.02 0.51
9:35 pm 21:35 Cloudy with Light Rain 40 4.7 40 4.3 97 97 Calm 29.88 1012 10 16 0.03 0.76
9:55 pm 21:55 Cloudy with Rain 40 4.7 40 4.3 97 97 S 3 6 29.88 1012 7 11 0.04 1.02
10:15 pm 22:15 Cloudy with Light Rain 40 4.7 40 4.3 97 97 S 5 7 29.83 1010 7 11 0.02 0.51
10:35 pm 22:35 Cloudy with Light Rain 41 4.8 40 4.5 98 98 SSE 6 9 29.83 1010 7 11 0.03 0.76
10:55 pm 22:55 Cloudy with Drizzle 41 5 40 4.5 97 97 S 3 6 29.83 1010 10 16 0.03 0.76
11:15 pm 23:15 Cloudy 41 5 40 4.5 97 97 SSW 3 6 29.83 1010 10 16 N/A
11:35 pm 23:35 Cloudy with Drizzle 41 5.1 40 4.7 97 97 S 3 6 29.80 1009 10 16 N/A
11:55 pm 23:55 Cloudy with Light Rain 41 5.2 41 4.8 97 97 SW 5 7 29.83 1010 10 16 N/A

Powered by AerisWeather